Tracking 27420 objects as of 28-May-2023
HD Live streaming from Space Station
objects crossing your sky now

BREEZE-M DEB

Track BREEZE-M DEB now!
10-day predictions


NORAD ID: 38622
Int'l Code: 2008-011BV
Perigee: 690.9 km
Apogee: 26,349.8 km
Inclination: 49.2 °
Period: 465.3 minutes
Semi major axis: 19891 km
RCS: 0.1286 m2 (medium)
Launch date: March 14, 2008
Source: Commonwealth of Independent States (former USSR) (CIS)
Launch site: TYURATAM MISSILE AND SPACE COMPLEX (TTMTR)

Note: This is SATELLITE DEBRIS
Your satellite tracking list
Your tracking list is empty




NASA's NSSDC Master Catalog

Two Line Element Set (TLE):
1 38622U 08011BV  23144.66664892  .00000097  00000-0  28463-2 0  9993
2 38622  49.2300 298.0220 6449747 323.1704   6.3146  3.09460948130620
Source of the keplerian elements: AFSPC